STARLINK-2525, 48482

Orbit data source: Space-Track

STARLINK-2525, 48482 is a payload satellite owned by SpaceX/Seattle (US) in LEO that was launched on Sun, 09 May 2021 UTC via an FALCON 9 launch vehicle from the Air Force Eastern Test Range (AFETR). Payload-class satellites include a variety of spacecraft equipped with specific instruments for various scientific and technological missions. These include communications satellites like Starlink; space stations such as the ISS; scientific satellites like the Hubble; Earth observation satellites from companies like Planet Labs, Umbra, and HawkEye 360; GPS; miniature CubeSats for education and research; and military/defense satellites.

Loading next visibility...
Identifier
48482, 2021-040BG
Orbit
LEO
Country
Flag of USUS
Related business
Manufacturer
SpaceX/Seattle
Mission
Operational Commercial Communications
Bus & Motor
STARLINK, Unknown motor
Mass
260 kg wet, ~248 kg dry
Launch date (UTC)
2021-05-09 (5 years ago)
Launch vehicle
FALCON 9
Launch site
Air Force Eastern Test Range (AFETR)
Object type
Payload
Rocket body
Debris
Shape & HBR
Box + 1 Pan, 10.1 m
Radar Cross Section
13.562 m², Large (>1 m²)

Expand to show TLE details & history
Last TLE update: 2 days ago

TLE from 2 days ago
0 STARLINK-2525
1 48482U 21040BG  26171.44096851  .00001297  00000-0  53552-4 0  9990
2 48482  53.1602  75.8894 0001411  93.6891 266.4271 15.31703221282206
Epoch: 2026-06-20T10:34Z
TLE epoch observation values (Epoch: 2026-06-20T10:34:59.679Z)
Latitude
-0.00007°
Longitude
8.48513°
Altitude
471.691 km
Speed
7.631 km/s
True Right ascension
05h 03m 33s
True Declination
0° 00' 00"
Sunlit
Object was in daylight at epoch
Visualization orbit readout
Latitude
Unknown
Longitude
Unknown
Altitude
Unknown
Speed
Unknown
Apparent Right ascension
Unknown
Apparent Declination
Unknown
Sunlit
N/A
Visualization observer readout
Local Sidereal Time
21:23:32
Azimuth
Unknown
Elevation
Unknown
Doppler factor
Unknown
Orbital elements
Apogee altitude
471.953 km
Perigee altitude
470.021 km
Semi-major axis
6,849.124 km
Eccentricity
0.00014
Inclination
53.1602°
RAAN
75.8894°
Arg. of periapsis
93.6891°
True anomaly
266.41096°
Mean anomaly
266.4271°
Eccentric anomaly
266.41903°
Mean motion
3.82905 °/min
Orbital period
94.02 mins
BSTAR
0.000053552
Loading maneuver chart data...
Computing Atmospheric mass density...

Documentation

Showing up to 5 results
|